Regional Weather Roundup
Issued by NWS

Home | Current Version | Previous Version | Graphics & Text | Print | Product List | Glossary On
Versions: 1 2 3 4 5 6 7 8 9 10 11 12 13 14 15 16 17 18 19 20 21 22 23 24 25 26 27 28 29 30 31 32 33 34 35 36 37 38 39 40 41 42 43 44 45 46 47 48 49 50
374
ASUS43 KFSD 221710
RWRSD

WEATHER ROUNDUP FOR SOUTH DAKOTA
NATIONAL WEATHER SERVICE SIOUX FALLS SD
1200 PM CDT WED MAR 22 2017

NOTE: "FAIR" INDICATES FEW OR NO CLOUDS BELOW 12,000 FEET WITH NO
SIGNIFICANT WEATHER AND/OR OBSTRUCTIONS TO VISIBILITY.


SDZ001>005-009-010-012>017-221800-
NORTHWEST AND NORTH CENTRAL SOUTH DAKOTA

CITY           SKY/WX    TMP DP  RH WIND       PRES   REMARKS
BUFFALO          N/A     40  34  79 SE15      29.80F
FAITH            N/A     41  33  73 S30G41    29.90F
MOBRIDGE       SUNNY     39  25  57 S33G43    30.05F
$$

SDZ012>016-024>037-041>051-057-063-072>074-221800-
SOUTHWEST AND SOUTH CENTRAL SOUTH DAKOTA

CITY           SKY/WX    TMP DP  RH WIND       PRES   REMARKS
RAPID CTY ARPT CLOUDY    48  36  63 S20G25    29.83F
PIERRE         CLOUDY    40  32  73 S22G31    30.09F
CUSTER         CLOUDY    45  36  70 SW7       29.91F
ELLSWORTH AFB  CLOUDY    49  38  64 S22G29    29.81F
PHILIP         CLOUDY    48  35  60 S25G35    29.96F
PINE RIDGE     CLOUDY    48  36  63 S26G36    29.95F
SPEARFISH      FAIR      52  39  62 CALM      29.82F
WINNER         PTSUNNY   38  29  70 S24G35    30.15F
$$

SDZ004>011-016>023-039-040-221800-
NORTHEAST SOUTH DAKOTA

CITY           SKY/WX    TMP DP  RH WIND       PRES   REMARKS
ABERDEEN       MIX PCPN  29  18  63 S25G32    30.27F WCI  14
WATERTOWN      CLOUDY    29  15  56 SE20G30   30.31F WCI  16
BROOKINGS      CLOUDY    30  17  58 S20G26    30.35F WCI  17
SISSETON         N/A     28  18  66 S17       30.34F WCI  16
$$

SDZ017-020-022-023-036>040-048>070-221800-
SOUTHEAST SOUTH DAKOTA

CITY           SKY/WX    TMP DP  RH WIND       PRES   REMARKS
SIOUX FALLS    CLOUDY    32  18  56 SE18      30.37F WCI  20
HURON          CLOUDY    29  23  78 SE21G30   30.29F WCI  16
CHAMBERLAIN    CLOUDY    35  29  80 SE16G28   30.21F WCI  24
MITCHELL       CLOUDY    31  26  82 SE21G28   30.32F WCI  18
YANKTON        CLOUDY    34  21  60 SE16      30.35F WCI  23
$$

ABBREVIATIONS USED IN REMARKS
   TC - TEMPERATURE IN CELSIUS
  WCI - WIND CHILL INDEX
   HX - HEAT INDEX
  VSB - VISIBILITY





USA.gov is the U.S. government's official web portal to all federal, state and local government web resources and services.